{"data":{"norad_id":62064,"intl_designator":"2024-217H","name":"STARLINK-11456 [DTC]","alt_names":[],"object_type":"PAYLOAD","status":"ACTIVE","operator":null,"country":"US","launch_date":"2024-11-24","launch_site_code":"AFWTR","launch_vehicle":null,"mission":null,"orbit_class":"UNKNOWN","rcs_meters":null,"size_class":null,"mass_kg":null,"dimensions":null,"purposes":["comms"],"wikipedia_slug":null,"has_3d_model":false,"image_url":null,"decayed_at":null,"tle_current":{"epoch":"2026-05-25T03:27:41.794272Z","epoch_age_seconds":55738,"freshness":"FRESH","line1":"1 62064U 24217H   26145.14423373  .00247617  00000+0  19818-2 0  9994","line2":"2 62064  53.1570  54.2108 0000963 104.3368 255.7757 15.69788360 87189","mean_motion":15.6978836,"eccentricity":9.63e-5,"inclination_deg":53.157,"raan_deg":54.2108,"arg_perigee_deg":104.3368,"mean_anomaly_deg":255.7757,"bstar":0.0019818,"rev_number":8718,"period_min":91.732110945198,"perigee_km":358.85368873612,"apogee_km":360.15135810833,"semimajor_km":6737.6395234222,"source":"CELESTRAK","updated_at":"2026-05-25T13:38:19.531044Z"}}}